Location: Im Fang
(46.6019°N, 7.2397°E)
Time: 06:30:01
(UTC+00:00)

Cosmos 2227 Rocket - Pass Details

Date: 08 December 2019
Orbit: 840 x 844 km, 71.0° (Epoch: 17 January)

Event Time Altitude Azimuth Distance (km) Brightness Sun altitude
Exits shadow 05:56:09 12° 314° (NW) 2,359 4.0 -10.8°
Maximum altitude 05:57:15 12° 326° (NW) 2,321 4.0 -10.7°
Drops below altitude 10° 05:59:27 10° 349° (N) 2,474 4.3 -10.3°
Sets 06:03:42 0° 20° (NNE) 3,412 5.3 -9.6°
